Flag for U.S.A. Weather past 2 weeks in Pittsburgh, Pennsylvania, U.S.A.

Now
59 °F

Sunny.


Feels Like: 60 °F
Forecast: 47 / 76 °F
Wind: 3 mph from Northwest

Location: Allegheny County Airport

Current Time: Apr 18, 2015 at 9:23:17 AM

Latest Report: Apr 18, 2015 at 8:53 AM


Visibility: 9 mi

Pressure: 30.06 "Hg

Humidity: 62%

Dew point: 46 °F

Location of PittsburghLocation

Historic Weather in Pittsburgh — Graph

°F

Pittsburgh temperature yesterday

Maximum temperature yesterday: 69 °F (at 4:53 PM)
Minimum temperature yesterday: 53 °F (at 2:53 AM)
Average temperature yesterday: 60 °F

Past Weeks' High & Low Weather Summary

 TemperatureHumidityPressure
High80 °F (Apr 13, 3:53 PM)90% (Apr 3, 7:00 AM)30.34 "Hg (Apr 3, 7:00 AM)
Low33 °F (Apr 4, 6:53 AM)13% (Apr 15, 4:53 PM)29.69 "Hg (Apr 3, 7:53 PM)
Average56 °F54%30.10 "Hg
* Reported Apr 3 7:00 AM — Apr 18 7:53 AM, Pittsburgh, Weather by CustomWeather, © 2015

Note: Actual official high and low records may vary slightly from our data, if they occured in-between our weather recording intervals... More about our weather records

Advertising

Pittsburgh weather history for previous 24 hours

 ConditionsComfort  
Time TempWeatherWind HumidityBarometerVisibility
7:53 AM
Sat, Apr 18
52 °FSunny.No wind77%30.07 "Hg6 mi
6:53 AM51 °FClear.No wind80%30.06 "Hg6 mi
5:53 AM53 °FClear.No wind72%30.04 "Hg9 mi
4:53 AM54 °FClear.3 mph69%30.03 "Hg10 mi
3:53 AM55 °FClear.6 mph67%30.01 "Hg10 mi
2:53 AM54 °FClear.7 mph72%30.02 "Hg7 mi
1:53 AM58 °FClear.No wind60%30.04 "Hg10 mi
12:53 AM58 °FClear.3 mph60%30.05 "Hg10 mi
11:53 PM
Fri, Apr 17
57 °FClear.6 mph62%30.05 "Hg10 mi
10:53 PM59 °FClear.7 mph60%30.04 "Hg10 mi
9:53 PM62 °FClear.6 mph54%30.03 "Hg10 mi
8:53 PM64 °FSunny.5 mph49%30.02 "Hg10 mi
7:53 PM66 °FSunny.6 mph45%30.01 "Hg10 mi
6:53 PM68 °FPassing clouds.5 mph44%30.01 "Hg10 mi
5:53 PM69 °FPassing clouds.5 mph45%30.00 "Hg10 mi
4:53 PM69 °FBroken clouds.7 mph49%30.01 "Hg10 mi
3:53 PM68 °FBroken clouds.7 mph53%30.03 "Hg10 mi
2:53 PM66 °FOvercast.10 mph56%30.04 "Hg10 mi
1:53 PM65 °FMore clouds than sun.7 mph63%30.06 "Hg10 mi
12:53 PM63 °FMostly cloudy.5 mph68%30.07 "Hg10 mi
11:53 AM62 °FOvercast.7 mph70%30.08 "Hg10 mi
11:04 AM61 °FPartly sunny.9 mph70%30.07 "Hg10 mi
10:53 AM62 °FBroken clouds.8 mph70%30.08 "Hg10 mi
9:53 AM58 °FOvercast.6 mph75%30.08 "Hg10 mi
Weather by CustomWeather, © 2015

See weather overviewHow to use our weather pages